Tracking 25710 objects as of 5-Jul-2022
HD Live streaming from Space Station
objects crossing your sky now

FENGYUN 1C DEB

Track FENGYUN 1C DEB now!
10-day predictions


NORAD ID: 36716
Int'l Code: 1999-025EAN
Perigee: 834.9 km
Apogee: 1,056.9 km
Inclination: 99.2 °
Period: 103.8 minutes
Semi major axis: 7316 km
RCS: 0.0064 m2 (small)
Launch date: May 10, 1999
Source: People's Republic of China (PRC)
Launch site: Taiyaun Space Center, China (TSC)

Note: This is SATELLITE DEBRIS
aabbcc
Your satellite tracking list
Your tracking list is empty




NASA's NSSDC Master Catalog

Two Line Element Set (TLE):
1 36716U 99025EAN 22185.02538098  .00000100  00000-0  11228-3 0  9999
2 36716  99.2117 104.0357 0151721  11.5693 348.8888 13.87104368454872
Source of the keplerian elements: AFSPC